Weather History for Connaught Airport, Ireland

Change the Weather History Date:

Monday, October 22, 2012

  Actual Average Record
Temperature  
Mean Temperature 46 °F -  
Max Temperature 52 °F - - ()
Min Temperature 42 °F - - ()
Degree Days  
Heating Degree Days 18    
Moisture  
Dew Point 47 °F    
Average Humidity 95    
Maximum Humidity 100    
Minimum Humidity 88    
Precipitation  
Precipitation 0.01 in - - ()
Sea Level Pressure  
Sea Level Pressure 30.16 in    
Wind  
Wind Speed 8 mph ()    
Max Wind Speed 12 mph    
Max Gust Speed -    
Visibility 4.0 miles    
Events Fog    
T = Trace of Precipitation, MM = Missing Value Source: Averaged Metar Reports

Daily Weather History Graph

Daily Weather History Graph

Search for Another Location

Airport:

Trip Planner

Search our weather history database for the weather conditions in past years. The results will help you decide how hot, cold, wet, or windy it might be!

Date:

Astronomy

Oct. 22, 2012 Rise Set
Actual Time 8:16 AM IST 6:21 PM IST
Civil Twilight 7:40 AM IST 6:57 PM IST
Nautical Twilight 6:59 AM IST 7:38 PM IST
Astronomical Twilight 6:18 AM IST 8:19 PM IST
Moon 3:17 PM IST (10/22) No Moon Set
Length of Visible Light 11h 17m
Length of Day
10h 04m
First Quarter, 53% of the Moon is Illuminated
Oct 22
First Quarter
Oct 29
Full
Nov 7
Last Quarter
Nov 13
New
Nov 20
First Quarter

Hourly Weather History & Observations

Time (IST) Temp. Windchill Dew Point Humidity Pressure Visibility Wind Dir Wind Speed Gust Speed Precip Events Conditions
1:00 AM 44 °F - 44 °F 100% 30.12 in - ESE 8.9 mph - -  
6:00 AM 44.6 °F 39.7 °F 44.6 °F 100% 30.12 in 1.9 mi ESE 9.2 mph - N/A   Mostly Cloudy
6:30 AM 42.8 °F 38.0 °F 42.8 °F 100% 30.12 in 0.1 mi ESE 8.1 mph - N/A Fog Fog
7:00 AM 43 °F - 43 °F 100% 30.16 in 0 mi ESE 8.9 mph - - Fog Heavy Fog
7:00 AM 42.8 °F 37.5 °F 42.8 °F 100% 30.12 in 0.1 mi ESE 9.2 mph - N/A Fog Fog
7:30 AM 42.8 °F 37.5 °F 42.8 °F 100% 30.12 in 0.2 mi East 9.2 mph - N/A Fog Fog
8:00 AM 44.6 °F 39.2 °F 44.6 °F 100% 30.12 in 0.2 mi ESE 10.4 mph - N/A Fog Fog
8:30 AM 44.6 °F 40.7 °F 44.6 °F 100% 30.12 in 0.2 mi ESE 6.9 mph - N/A Fog Fog
9:00 AM 44.6 °F 38.8 °F 44.6 °F 100% 30.12 in 0.2 mi ESE 11.5 mph - N/A Fog Fog
9:30 AM 44.6 °F 39.2 °F 44.6 °F 100% 30.15 in 1.6 mi ESE 10.4 mph - N/A   Partly Cloudy
10:00 AM 46.4 °F 42.4 °F 46.4 °F 100% 30.15 in 2.5 mi SE 8.1 mph - N/A   Partly Cloudy
10:30 AM 48.2 °F - 46.4 °F 93% 30.15 in 3.1 mi SE 10.4 mph - N/A   Scattered Clouds
11:00 AM 48.2 °F - 46.4 °F 93% 30.15 in 3.1 mi ESE 10.4 mph - N/A   Scattered Clouds
11:30 AM 48.2 °F - 48.2 °F 100% 30.18 in 3.7 mi ESE 9.2 mph - N/A   Scattered Clouds
12:00 PM 48.2 °F - 48.2 °F 100% 30.18 in 4.3 mi SE 9.2 mph - N/A   Scattered Clouds
12:30 PM 50.0 °F - 48.2 °F 94% 30.18 in 6.2 mi SE 6.9 mph - N/A   Mostly Cloudy
1:00 PM 50 °F - 48 °F 91% 30.20 in 6 mi SE 8.9 mph - -   Mist
1:00 PM 50.0 °F - 48.2 °F 94% 30.18 in 5.6 mi SE 9.2 mph - N/A   Overcast
1:30 PM 50.0 °F - 48.2 °F 94% 30.18 in 6.2 mi SE 8.1 mph - N/A   Overcast
2:00 PM 51.8 °F - 48.2 °F 88% 30.18 in 6.2 mi ESE 6.9 mph - N/A   Mostly Cloudy
2:30 PM 51.8 °F - 48.2 °F 88% 30.18 in 6.2 mi ESE 8.1 mph - N/A   Mostly Cloudy
3:00 PM 51.8 °F - 48.2 °F 88% 30.18 in 6.2 mi ESE 8.1 mph - N/A   Mostly Cloudy
3:30 PM 51.8 °F - 48.2 °F 88% 30.18 in 6.2 mi East 6.9 mph - N/A   Mostly Cloudy
4:00 PM 51.8 °F - 48.2 °F 88% 30.18 in 6.2 mi ESE 6.9 mph - N/A   Mostly Cloudy
4:30 PM 51.8 °F - 48.2 °F 88% 30.18 in 6.2 mi ESE 6.9 mph - N/A   Mostly Cloudy
5:00 PM 51.8 °F - 48.2 °F 88% 30.18 in 6.2 mi ESE 4.6 mph - N/A   Mostly Cloudy
5:30 PM 51.8 °F - 48.2 °F 88% 30.18 in 6.2 mi ESE 4.6 mph - N/A   Mostly Cloudy
6:00 PM 51.8 °F - 48.2 °F 88% 30.21 in 6.2 mi East 4.6 mph - N/A   Mostly Cloudy
7:00 PM 50 °F - 49 °F 95% 30.24 in 12 mi East 6.7 mph - -   Mostly Cloudy